Location: Wien
(48.2082°N, 16.3738°E)
Time: 22:02:40
(UTC+02:00)

Explorer 7 - Visible Passes

Search period start: 20 May 2025 00:00
Search period end: 30 May 2025 00:00
Orbit: 446 x 574 km, 50.3° (Epoch: 20 May)

Date Brightness Start Highest point End Pass type
(mag) Time Alt. Az. Time Alt. Az. Time Alt. Az.
20 May 8.3 02:41:39 18° SE 02:41:50 18° SE 02:44:31 10° E visible
20 May 6.7 04:16:30 10° WSW 04:20:14 72° SSE 04:24:11 10° ENE visible
21 May 8.3 02:23:34 19° SE 02:23:34 19° SE 02:26:01 10° E visible
21 May 6.6 03:58:21 13° WSW 04:01:40 76° SSE 04:05:35 10° ENE visible
22 May 8.4 02:05:25 19° ESE 02:05:25 19° ESE 02:07:29 10° E visible
22 May 6.5 03:40:12 16° WSW 03:43:05 79° SSE 03:46:59 10° ENE visible
23 May 8.4 01:47:12 19° ESE 01:47:12 19° ESE 01:48:56 10° E visible
23 May 6.5 03:22:00 20° WSW 03:24:29 82° SSE 03:28:22 10° ENE visible
24 May 8.6 01:28:57 18° ESE 01:28:57 18° ESE 01:30:22 10° E visible
24 May 6.5 03:03:45 24° WSW 03:05:53 86° SSE 03:09:45 10° ENE visible
25 May 8.7 01:10:39 16° E 01:10:39 16° E 01:11:47 10° E visible
25 May 6.4 02:45:25 28° WSW 02:47:16 89° SSE 02:51:07 10° ENE visible
26 May 8.7 00:52:16 15° E 00:52:16 15° E 00:53:11 10° E visible
26 May 6.4 02:27:03 32° WSW 02:28:38 88° NNW 02:32:28 10° ENE visible
26 May 7.1 04:04:00 10° W 04:07:44 62° N 04:11:38 10° E visible
27 May 8.8 00:33:50 14° E 00:33:50 14° E 00:34:34 10° E visible
27 May 6.5 02:08:36 36° WSW 02:10:00 85° NNW 02:13:49 10° ENE visible
27 May 7.1 03:45:24 10° WNW 03:49:06 63° N 03:52:58 10° E visible
28 May 8.8 00:15:18 14° E 00:15:18 14° E 00:15:57 10° E visible
28 May 6.5 01:50:04 38° W 01:51:21 82° NNW 01:55:08 10° ENE visible
28 May 7.0 03:26:46 10° WNW 03:30:28 63° N 03:34:18 10° E visible
28 May 8.7 23:56:38 14° E 23:56:38 14° E 23:57:18 10° E visible
29 May 6.5 01:31:22 37° W 01:32:42 80° NNW 01:36:28 10° ENE visible
29 May 7.0 03:08:07 10° WNW 03:11:48 64° N 03:15:38 10° E visible
29 May 8.5 23:37:42 16° E 23:37:42 16° E 23:38:39 10° E visible
